Flag for Turkey Weather past 2 weeks in Samsun, Turkey

Now
81 °F

Scattered clouds.


Feels Like: 85 °F
Forecast: 64 / 86 °F
Wind: 7 mph from Northwest

Location: Samsun / Carsamba

Current Time: Jul 30, 2014 at 7:19:43 PM

Latest Report: Jul 30, 2014 at 6:50 PM


Visibility: N/A

Pressure: 29.83 "Hg

Humidity: 74%

Dew point: 72 °F

Location of SamsunLocation

Historic Weather in Samsun — Graph

°F

Samsun temperature yesterday

Maximum temperature yesterday: 84 °F (at 11:50 AM)
Minimum temperature yesterday: 66 °F (at 4:50 AM)
Average temperature yesterday: 77 °F

Past Weeks' High & Low Weather Summary

 TemperatureHumidityPressure
High88 °F (Jul 23, 12:50 PM)100% (Jul 16, 6:50 AM)29.89 "Hg (Jul 16, 6:50 AM)
Low63 °F (Jul 24, 3:50 AM)45% (Jul 20, 10:50 AM)29.65 "Hg (Jul 24, 12:50 PM)
Average76 °F77%29.78 "Hg
* Reported Jul 15 5:50 PM — Jul 30 5:50 PM, Samsun, Weather by CustomWeather, © 2014

Note: Actual official high and low records may vary slightly from our data, if they occured in-between our weather recording intervals... More about our weather records

Advertising

Samsun weather history for previous 24 hours

 ConditionsComfort  
Time TempWeatherWind HumidityBarometerVisibility
5:50 PM
Jul 30
82 °FScattered clouds.8 mph70%29.83 "HgN/A
4:50 PM82 °FScattered clouds.8 mph70%29.83 "HgN/A
3:50 PM82 °FScattered clouds.10 mph70%29.80 "HgN/A
2:50 PM84 °FScattered clouds.9 mph62%29.80 "HgN/A
1:50 PM84 °FScattered clouds.9 mph66%29.80 "HgN/A
12:50 PM84 °FScattered clouds.9 mph66%29.80 "HgN/A
11:50 AM84 °FScattered clouds.9 mph66%29.80 "HgN/A
10:50 AM82 °FScattered clouds.8 mph70%29.80 "HgN/A
9:50 AM81 °FScattered clouds.8 mph70%29.80 "HgN/A
8:50 AM81 °FScattered clouds.8 mph70%29.80 "HgN/A
7:50 AM77 °FPassing clouds.3 mph74%29.80 "HgN/A
6:50 AM70 °FPassing clouds.2 mph88%29.77 "HgN/A
5:50 AM66 °FPassing clouds.3 mph94%29.77 "HgN/A
4:50 AM68 °FPassing clouds.2 mph94%29.77 "HgN/A
3:50 AM68 °FPassing clouds.No wind94%29.77 "HgN/A
2:50 AM68 °FPassing clouds.5 mph94%29.77 "HgN/A
1:50 AM70 °FPassing clouds.2 mph88%29.77 "HgN/A
12:50 AM72 °FPassing clouds.2 mph83%29.77 "HgN/A
11:50 PM
Jul 29
72 °FPassing clouds.2 mph88%29.80 "HgN/A
10:50 PM73 °FPassing clouds.6 mph89%29.80 "HgN/A
9:50 PM75 °FPassing clouds.3 mph89%29.80 "HgN/A
8:50 PM77 °FPassing clouds.5 mph89%29.80 "HgN/A
7:50 PM77 °FPassing clouds.1 mph83%29.77 "HgN/A
Weather by CustomWeather, © 2014

See weather overviewHow to use our weather pages